[[{"header":{"parameterUnit":"m.s-1","parameterCategory":1,"la1":30.2991,"la2":30.254,"lo1":-89.0895,"lo2":-89.0444,"dy":0.0017,"dx":0.0017,"nx":28,"ny":28,"refTime":"2024-08-07T21:00:00:Z","depth":0,"parameterNumber":2,"parameterNumberName":"U-component_of_WINDS"},"data":[0,0,0,0,0,0,0,0,0,0,0,0,0,0,0,0,0,0,0,0,0,0,0,0,0,0,0,0,0,0,0,0,0,0,0,0,0,0,0,0,0,0,0,0,0,0,0,0,0,0,0,0,0,0,0,0,0,0,3.222,3.2221,0,3.2282,3.2283,3.2283,3.2206,3.2203,3.22,3.2197,3.2262,3.2267,3.2271,0,0,0,0,0,0,0,0,0,0,0,0,0,3.2037,3.204,3.222,3.2221,3.2221,3.2282,3.2283,3.2284,3.2206,3.2203,3.2199,3.2196,3.2261,3.2266,3.2271,0,0,0,0,0,0,0,0,0,0,0,0,0,3.2109,3.2042,3.222,3.219,3.2188,3.2282,3.2283,3.2284,3.2207,3.2203,3.2198,3.2194,3.2259,3.2266,3.2272,3.2398,0,0,3.2292,3.2295,0,0,0,0,0,0,0,0,3.2105,3.2116,3.2194,3.2192,3.219,3.2232,3.2242,3.2322,3.2208,3.22,3.2197,3.2192,3.2256,3.2262,3.2283,3.2401,3.2404,3.2293,3.2297,3.23,3.2301,0,0,0,0,0,0,0,3.21,3.2113,3.2244,3.2195,3.2193,3.2174,3.218,3.2257,3.2251,3.22,3.2195,3.2203,3.2254,3.2277,3.2284,3.2405,3.2293,3.2298,3.2302,3.2305,3.2631,3.2636,0,0,0,0,0,0,3.2099,3.2109,3.2242,3.2246,3.2136,3.2181,3.2187,3.2223,3.225,3.225,3.2207,3.2199,3.2268,3.2277,3.2286,3.2437,3.23,3.2306,3.2309,3.2627,3.2632,3.2638,0,0,0,0,0,0,3.2095,3.2111,3.224,3.2176,3.2191,3.2189,3.2229,3.2226,3.2249,3.2255,3.2254,3.2231,3.2265,3.2277,3.2371,3.2438,3.2309,3.2315,3.2621,3.2628,3.2635,3.2739,0,0,0,0,0,0,3.209,3.211,3.2158,3.2178,3.2195,3.2324,3.2233,3.2231,3.2261,3.2252,3.2278,3.2278,3.2263,3.2362,3.2378,3.2445,3.232,3.2615,3.2624,3.2633,3.273,3.2749,3.2766,0,0,0,0,0,3.2084,3.2184,3.216,3.2177,3.2254,3.2328,3.2337,3.2317,3.2266,3.2315,3.2318,3.2277,3.2428,3.2372,3.2389,3.246,3.2611,3.2622,3.2632,3.2722,3.2745,3.2765,0,0,0,0,0,0,3.2172,3.2186,3.216,3.227,3.2298,3.2314,3.2374,3.2342,3.2386,3.2376,3.2349,3.2356,3.2457,3.2467,3.2405,3.2584,3.2511,3.2526,3.2574,3.2596,3.2614,3.261,3.2325,0,0,0,0,0,3.2204,3.2262,3.2272,3.2368,3.2384,3.2377,3.2408,3.239,3.2418,3.243,3.244,3.247,3.2524,3.256,3.261,3.2731,3.2736,3.2788,3.2806,3.282,3.2834,3.29,3.2924,3.2672,3.2672,3.2672,0,0,3.2272,3.2287,3.2325,3.2386,3.2406,3.2468,3.2387,3.2455,3.2501,3.244,3.253,3.2539,3.257,3.2679,3.2727,3.2691,3.2904,3.2834,3.2845,3.2851,3.2913,3.2937,3.2958,3.268,3.2678,3.2677,0,0,3.2427,3.2443,3.2526,3.2547,3.2578,3.2573,3.2593,3.2614,3.2618,3.2708,3.2664,3.2718,3.2812,3.2836,3.2861,3.3027,3.2991,3.3044,3.3137,3.3202,3.3222,3.324,3.3301,3.3323,3.3057,3.3057,3.3057,0,3.2507,3.2597,3.2573,3.2645,3.2674,3.2621,3.2706,3.2728,3.2774,3.2796,3.2754,3.2871,3.2888,3.3003,3.3044,3.3065,3.3088,3.3041,3.3221,3.3238,3.3254,3.3312,3.3335,3.3063,3.3063,3.3062,3.3061,0,3.2695,3.2759,3.2822,3.2868,3.2904,3.2982,3.297,3.301,3.2989,3.2989,3.3082,3.3101,3.3155,3.318,3.316,3.3293,3.3269,3.3225,3.3151,3.3285,3.3339,3.3361,3.3072,3.307,3.3068,3.3067,0,0,3.2908,3.2939,3.2963,3.2984,3.3015,3.3064,3.314,3.3192,3.3228,3.3261,3.3325,3.3406,3.3366,3.3394,3.3377,3.3434,3.3566,3.3382,3.3383,3.3418,3.3715,3.375,3.3776,3.3542,3.3546,3.3549,3.3713,0,3.3064,3.3195,3.3176,3.3303,3.3363,3.3314,3.338,3.3407,3.3409,3.346,3.3462,3.3521,3.3462,3.3479,3.3533,3.3539,3.3626,3.3526,3.3603,3.3606,3.3599,3.3803,3.384,3.3993,3.3734,3.3737,3.374,0,3.3264,3.3305,3.3438,3.3461,3.3485,3.3545,3.3593,3.3642,3.3671,3.3669,3.3701,3.3674,3.3751,3.3676,3.3783,3.3716,3.3746,3.3753,3.3759,3.3767,3.3682,3.3818,3.4041,3.4065,3.3773,3.377,3.3768,0,3.3408,3.3497,3.3588,3.3607,3.3635,3.3679,3.3693,3.3718,3.3752,3.3793,3.3815,3.3865,3.3893,3.3933,3.392,3.3866,3.4031,3.3954,3.4033,3.4033,3.4071,3.4069,3.4304,3.4088,3.4087,3.4087,3.4087,0,3.3586,3.367,3.3653,3.371,3.3803,3.378,3.3873,3.3881,3.3904,3.3963,3.3923,3.3979,3.3958,3.4013,3.4003,3.4095,3.4107,3.4109,3.4106,3.4113,3.4114,3.4134,3.4124,3.4093,3.4092,3.4091,3.409,0,3.3763,3.3755,3.3852,3.3871,3.3878,3.3946,3.3962,3.4016,3.4015,3.4089,3.4105,3.4104,3.4167,3.4158,3.4227,3.4221,3.4336,3.4318,3.4326,3.4323,3.4403,3.4396,3.4661,3.4695,3.4455,3.4457,3.4459,0,3.3878,3.3941,3.3967,3.4003,3.402,3.4078,3.4112,3.4093,3.413,3.4169,3.4219,3.4277,3.4324,3.4426,3.4432,3.4485,3.447,3.4559,3.4478,3.4485,3.4474,3.4471,3.4479,3.4576,3.4579,3.4581,3.4583,0,3.4083,3.4076,3.4126,3.4176,3.4218,3.4256,3.429,3.4322,3.4305,3.4349,3.4412,3.4448,3.4519,3.4579,3.463,3.4645,3.4613,3.4608,3.4629,3.4639,3.4642,3.4643,3.4372,3.4602,3.46,3.4599,3.4598,3.4597,3.4234,3.4289,3.4316,3.4374,3.4397,3.443,3.4482,3.4488,3.454,3.4596,3.4581,3.4654,3.4683,3.4747,3.4768,3.4825,3.4793,3.4823,3.4831,3.484,3.485,3.4631,3.4834,3.4833,3.4833,3.4832,3.4832,0,3.4439,3.4454,3.4507,3.4556,3.4602,3.4566,3.4603,3.4644,3.4708,3.4737,3.4784,3.4858,3.4915,3.4926,3.4982,3.5025,3.5012,3.5041,3.5038,3.5043,3.4875,3.4852,3.5051,3.5051,3.5051,3.5051,3.5051,3.5051,3.4551,3.4643,3.464,3.4743,3.4757,3.4828,3.4852,3.4883,3.4906,3.499,3.5038,3.5044,3.5067,3.5124,3.5176,3.5178,3.5201,3.5236,3.5233,3.5076,3.5054,3.5034,3.5012,3.5241,3.5241,3.5396,3.5397,3.5398]},{"header":{"parameterUnit":"m.s-1","parameterCategory":1,"la1":30.2991,"la2":30.254,"lo1":-89.0895,"lo2":-89.0444,"dy":0.0017,"dx":0.0017,"nx":28,"ny":28,"refTime":"2024-08-07T21:00:00:Z","depth":0,"parameterNumber":3,"parameterNumberName":"V-component_of_WINDS"},"data":[0,0,0,0,0,0,0,0,0,0,0,0,0,0,0,0,0,0,0,0,0,0,0,0,0,0,0,0,0,0,0,0,0,0,0,0,0,0,0,0,0,0,0,0,0,0,0,0,0,0,0,0,0,0,0,0,0,0,-2.4525,-2.4526,0,-2.4613,-2.4614,-2.4615,-2.4612,-2.4611,-2.4609,-2.4608,-2.4696,-2.47,-2.4703,0,0,0,0,0,0,0,0,0,0,0,0,0,-2.4353,-2.4356,-2.4525,-2.4526,-2.4527,-2.4613,-2.4614,-2.4615,-2.4612,-2.461,-2.4609,-2.4608,-2.4695,-2.4699,-2.4703,0,0,0,0,0,0,0,0,0,0,0,0,0,-2.4433,-2.4357,-2.4525,-2.4536,-2.4538,-2.4612,-2.4614,-2.4615,-2.4612,-2.461,-2.4609,-2.4607,-2.4694,-2.4699,-2.4704,-2.4773,0,0,-2.472,-2.4722,0,0,0,0,0,0,0,0,-2.4428,-2.4439,-2.4533,-2.4535,-2.4537,-2.4599,-2.4586,-2.4668,-2.4613,-2.4584,-2.4608,-2.4606,-2.4665,-2.4673,-2.4693,-2.4777,-2.478,-2.472,-2.4723,-2.4726,-2.4727,0,0,0,0,0,0,0,-2.4423,-2.4435,-2.4559,-2.4534,-2.4537,-2.4536,-2.4545,-2.4601,-2.4634,-2.4586,-2.4586,-2.4597,-2.4666,-2.4688,-2.4695,-2.4782,-2.472,-2.4725,-2.4728,-2.473,-2.4926,-2.4928,0,0,0,0,0,0,-2.4415,-2.4431,-2.4557,-2.4562,-2.4477,-2.4541,-2.4551,-2.4581,-2.4633,-2.4639,-2.4598,-2.4596,-2.468,-2.4689,-2.4698,-2.4782,-2.4726,-2.4731,-2.4734,-2.4924,-2.4927,-2.4929,0,0,0,0,0,0,-2.4411,-2.4426,-2.4553,-2.4497,-2.4513,-2.4546,-2.458,-2.4584,-2.4606,-2.4642,-2.4648,-2.4615,-2.4679,-2.4691,-2.4754,-2.4785,-2.4733,-2.4738,-2.4922,-2.4925,-2.4928,-2.4951,0,0,0,0,0,0,-2.4407,-2.4425,-2.4452,-2.4497,-2.4516,-2.4608,-2.4581,-2.4587,-2.4615,-2.4614,-2.4659,-2.4665,-2.4679,-2.4747,-2.476,-2.4792,-2.4742,-2.4919,-2.4923,-2.4927,-2.4947,-2.4954,-2.496,0,0,0,0,0,-2.44,-2.4454,-2.4453,-2.4468,-2.455,-2.461,-2.462,-2.4636,-2.4618,-2.4645,-2.4668,-2.4664,-2.478,-2.4753,-2.4768,-2.4802,-2.4917,-2.4922,-2.4927,-2.4944,-2.4953,-2.496,0,0,0,0,0,0,-2.4411,-2.446,-2.446,-2.453,-2.4566,-2.4609,-2.4644,-2.4644,-2.4685,-2.4682,-2.4698,-2.4708,-2.4772,-2.4793,-2.4762,-2.4871,-2.4846,-2.4854,-2.4855,-2.4863,-2.4869,-2.4863,-2.4746,0,0,0,0,0,-2.4421,-2.4467,-2.4507,-2.4565,-2.4583,-2.4611,-2.4637,-2.4646,-2.4684,-2.4698,-2.4726,-2.4763,-2.4807,-2.4836,-2.4879,-2.495,-2.496,-2.4981,-2.4987,-2.4992,-2.4999,-2.5038,-2.5048,-2.4944,-2.4944,-2.4944,0,0,-2.4443,-2.4476,-2.4503,-2.4568,-2.4597,-2.4643,-2.4623,-2.4673,-2.4707,-2.4706,-2.4768,-2.4789,-2.4831,-2.4898,-2.4929,-2.4918,-2.503,-2.4998,-2.5002,-2.5006,-2.5044,-2.5054,-2.5062,-2.4947,-2.4947,-2.4946,0,0,-2.4507,-2.4537,-2.4588,-2.4618,-2.4662,-2.468,-2.4692,-2.4736,-2.4751,-2.4813,-2.4813,-2.4854,-2.4931,-2.4961,-2.4986,-2.5062,-2.5059,-2.5075,-2.5108,-2.5146,-2.5155,-2.5162,-2.5189,-2.5198,-2.5081,-2.5081,-2.5082,0,-2.4529,-2.4599,-2.4615,-2.4665,-2.4693,-2.4695,-2.4747,-2.4775,-2.4831,-2.485,-2.4837,-2.4934,-2.4962,-2.5036,-2.5055,-2.5075,-2.509,-2.507,-2.5152,-2.516,-2.5167,-2.5193,-2.5203,-2.5083,-2.5083,-2.5083,-2.5083,0,-2.4623,-2.4672,-2.4708,-2.4763,-2.4795,-2.4846,-2.487,-2.4901,-2.4906,-2.4926,-2.4989,-2.5023,-2.5073,-2.5092,-2.5097,-2.5167,-2.5159,-2.5149,-2.5124,-2.5178,-2.5203,-2.5213,-2.5086,-2.5085,-2.5084,-2.5084,0,0,-2.4696,-2.4759,-2.4772,-2.4797,-2.4846,-2.4884,-2.4935,-2.4985,-2.5011,-2.505,-2.5093,-2.5158,-2.5149,-2.5178,-2.5187,-2.522,-2.5278,-2.5206,-2.5207,-2.5218,-2.5358,-2.5365,-2.5376,-2.5277,-2.5279,-2.5281,-2.5354,0,-2.4764,-2.4856,-2.4871,-2.4951,-2.4996,-2.4999,-2.5043,-2.5078,-2.5097,-2.5138,-2.5159,-2.5205,-2.519,-2.5208,-2.5241,-2.5264,-2.5307,-2.5259,-2.5317,-2.5319,-2.5306,-2.5389,-2.5397,-2.5464,-2.5364,-2.5365,-2.5367,0,-2.4857,-2.4899,-2.4983,-2.5026,-2.5046,-2.5086,-2.5133,-2.5172,-2.5211,-2.5223,-2.5256,-2.5261,-2.5314,-2.5287,-2.536,-2.5328,-2.5352,-2.5368,-2.5371,-2.5376,-2.5346,-2.5397,-2.5486,-2.5496,-2.5382,-2.5381,-2.538,0,-2.4901,-2.4978,-2.5039,-2.506,-2.5112,-2.514,-2.5163,-2.5201,-2.523,-2.5271,-2.5291,-2.5337,-2.5362,-2.5398,-2.5416,-2.5395,-2.5488,-2.5463,-2.5499,-2.5498,-2.5518,-2.5516,-2.5612,-2.5534,-2.5534,-2.5534,-2.5533,0,-2.4976,-2.5028,-2.5059,-2.5097,-2.5154,-2.5172,-2.5228,-2.5251,-2.5285,-2.5326,-2.5331,-2.537,-2.5391,-2.5433,-2.5447,-2.5505,-2.5517,-2.5528,-2.5531,-2.5527,-2.5526,-2.5543,-2.5539,-2.5536,-2.5536,-2.5535,-2.5535,0,-2.5035,-2.5059,-2.5125,-2.5169,-2.5182,-2.5222,-2.526,-2.5296,-2.5316,-2.5368,-2.5381,-2.5412,-2.5461,-2.5483,-2.5543,-2.5553,-2.562,-2.5619,-2.5607,-2.5608,-2.5643,-2.5639,-2.5753,-2.5769,-2.568,-2.5681,-2.5682,0,-2.5082,-2.5121,-2.517,-2.5199,-2.5223,-2.5268,-2.5298,-2.5317,-2.5348,-2.5397,-2.5427,-2.5477,-2.5517,-2.5596,-2.5623,-2.567,-2.5671,-2.5708,-2.5678,-2.5673,-2.5671,-2.5669,-2.5673,-2.5713,-2.5714,-2.5714,-2.5715,0,-2.5161,-2.5171,-2.5214,-2.5262,-2.5298,-2.5336,-2.5373,-2.5396,-2.5421,-2.5456,-2.5507,-2.5538,-2.5601,-2.565,-2.5698,-2.5722,-2.5723,-2.5724,-2.5735,-2.5732,-2.5723,-2.5728,-2.5621,-2.5722,-2.5721,-2.572,-2.572,-2.572,-2.5216,-2.5251,-2.5291,-2.5339,-2.537,-2.5405,-2.5441,-2.5465,-2.5508,-2.5561,-2.557,-2.5624,-2.5663,-2.5728,-2.5753,-2.5796,-2.5787,-2.5802,-2.5806,-2.581,-2.5812,-2.5716,-2.5805,-2.5805,-2.5804,-2.5804,-2.5804,0,-2.5296,-2.5322,-2.5366,-2.5418,-2.5456,-2.5455,-2.5496,-2.5528,-2.5576,-2.5612,-2.5652,-2.5711,-2.5759,-2.5791,-2.5839,-2.5867,-2.5869,-2.5879,-2.5877,-2.5883,-2.5817,-2.5803,-2.5877,-2.5877,-2.5877,-2.5877,-2.5877,-2.5877,-2.5342,-2.5402,-2.5417,-2.5492,-2.5517,-2.5571,-2.5595,-2.5627,-2.5657,-2.5722,-2.5762,-2.5783,-2.5817,-2.5868,-2.5912,-2.592,-2.5938,-2.5949,-2.5956,-2.5895,-2.5887,-2.588,-2.5867,-2.5952,-2.5952,-2.6018,-2.6018,-2.6019]}]]